Weather in Ulanovka

Russia / Kemerovo Oblast     56°23′57″N   86°06′10″E
temp.,
°C
wind,
m/s
gust,
m/s
humid.,
%
clouds,
%
prec.,
mm/h
press.,
hPa
HPBL,
m
22 october, fri
fri2201:00+6s3970100 0.0 1011180
04:00+5sse377499 0.0 1010124
07:00+5s31370100 0.0 1010280
10:00+8s5145899 0.0 1010502
13:00+9sw71468100 0.0 10121138
16:00+6sw61465100 0.0 10151371
19:00+4sw71461100 0.0 10171427
22:00+3sw71362100 0.0 10191252
23 october, sat
sat2301:00+2sw6136654 0.0 10211081
04:00+2ssw6146466 0.0 1021847
07:00+2ssw6146189 0.0 1021972
10:00+3ssw71655100 0.0 10191443
13:00+4ssw81656100 0.0 10171375
16:00+4ssw81669100 0.0 10161205
19:00+2ssw81995100 1.2 10131157
22:00+2sw81995100 3.0 10121146
24 october, sun
sun2401:00+4sw81696100 4.0 10111074
04:00+6sw71580100 0.0 10121089
07:00+6sw71581100 0.1 1012985
10:00+6sw71584100 0.4 10121029
13:00+7wsw61479100 0.5 10131523
16:00+8wsw71471100 0.3 10141604
19:00+6w513755 0.5 1018794
22:00+5wsw4108173 0.0 1020367
25 october, mon
mon2501:00+4sw2787100 0.0 1020257
04:00+5ssw31095100 0.0 1020360
07:00+5ssw41293100 0.0 1018473
10:00+6s61592100 0.9 1015682
13:00+10sw81775100 1.1 10121152
16:00+10sw81665100 0.0 10121105
19:00+9wsw7146451 0.0 10131107
22:00+7wsw613725 0.0 1016854
26 october, tue
tue2601:00+5w498238 0.0 1018439
04:00+2w259271 0.0 1020124
07:00+1ssw1194100 0.0 102010
10:00+3sse258889 0.0 1019174
13:00+7s4768100 0.0 1016489
16:00+8s4970100 0.0 1013476
19:00+6s41180100 0.0 1011328
22:00+6s41478100 0.0 1009426